TimeEST,TemperatureF,Dew PointF,Humidity,Sea Level PressureIn,VisibilityMPH,Wind Direction,Wind SpeedMPH,Gust SpeedMPH,PrecipitationIn,Events,Conditions,WindDirDegrees,DateUTC
12:56 AM,62.1,48.9,62,29.94,10.0,SW,8.1,17.3,0.00,,Overcast,230,2012-12-05 05:56:00
1:26 AM,60.8,48.2,63,29.97,10.0,WNW,11.5,24.2,N/A,,Overcast,300,2012-12-05 06:26:00
1:56 AM,57.9,48.0,70,30.00,10.0,NW,16.1,21.9,N/A,,Overcast,310,2012-12-05 06:56:00
2:56 AM,54.0,48.0,80,30.02,10.0,NNW,8.1,-,0.00,,Overcast,330,2012-12-05 07:56:00
3:56 AM,53.1,42.1,66,30.03,10.0,NNW,8.1,-,N/A,,Overcast,340,2012-12-05 08:56:00
4:56 AM,52.0,39.9,63,30.03,10.0,WNW,13.8,-,N/A,,Overcast,300,2012-12-05 09:56:00
5:56 AM,51.1,37.0,59,30.06,10.0,NW,15.0,24.2,N/A,,Overcast,320,2012-12-05 10:56:00
6:56 AM,48.0,36.0,63,30.10,10.0,NW,12.7,-,N/A,,Mostly Cloudy,310,2012-12-05 11:56:00
7:56 AM,46.9,35.1,63,30.12,10.0,WNW,11.5,-,N/A,,Mostly Cloudy,300,2012-12-05 12:56:00
9:56 AM,48.0,34.0,58,30.14,10.0,NW,21.9,29.9,N/A,,Scattered Clouds,320,2012-12-05 14:56:00
10:56 AM,51.1,35.1,54,30.13,10.0,NW,13.8,-,N/A,,Clear,310,2012-12-05 15:56:00
11:56 AM,54.0,32.0,43,30.12,10.0,NW,19.6,26.5,N/A,,Mostly Cloudy,320,2012-12-05 16:56:00
12:56 PM,50.0,30.0,46,30.13,10.0,NW,20.7,27.6,N/A,,Scattered Clouds,310,2012-12-05 17:56:00
1:56 PM,51.8,30.2,44,30.12,10.0,WNW,20.7,26.5,N/A,,Scattered Clouds,300,2012-12-05 18:56:00
2:56 PM,50.0,28.9,44,30.13,10.0,North,17.3,-,N/A,,Scattered Clouds,350,2012-12-05 19:56:00
3:56 PM,48.0,28.0,46,30.17,10.0,NW,17.3,-,N/A,,Mostly Cloudy,310,2012-12-05 20:56:00
4:56 PM,45.0,27.0,49,30.20,10.0,NW,17.3,-,N/A,,Scattered Clouds,310,2012-12-05 21:56:00
5:56 PM,43.0,23.0,45,30.24,10.0,NNW,16.1,27.6,N/A,,Scattered Clouds,330,2012-12-05 22:56:00
6:56 PM,41.0,21.0,45,30.27,10.0,NW,15.0,-,N/A,,Mostly Cloudy,320,2012-12-05 23:56:00
7:56 PM,39.0,19.9,46,30.29,10.0,NNW,12.7,18.4,N/A,,Mostly Cloudy,340,2012-12-06 00:56:00
8:56 PM,37.9,21.0,51,30.28,10.0,NNW,11.5,-,N/A,,Mostly Cloudy,340,2012-12-06 01:56:00
9:56 PM,37.0,19.9,50,30.29,10.0,NW,6.9,-,N/A,,Mostly Cloudy,320,2012-12-06 02:56:00
10:56 PM,35.1,21.0,57,30.30,10.0,North,9.2,-,N/A,,Mostly Cloudy,350,2012-12-06 03:56:00
11:56 PM,34.0,19.0,54,30.31,10.0,North,9.2,-,N/A,,Partly Cloudy,360,2012-12-06 04:56:00